Casper, WY

12:24 AM MDT on September 23, 2017 (GMT -0600)
Natrona County International

Weather History for KCPR - July, 2013

Change the Weather History Date:

Monday, July 1, 2013

  Actual Average Record
Temperature  
Mean Temperature 71 °F 68 °F  
Max Temperature 89 °F 85 °F 100 °F (2012)
Min Temperature 52 °F 50 °F 37 °F (1968)
Degree Days  
Heating Degree Days 0 1  
Month to date heating degree days 0 1  
Since 1 June heating degree days 72 137  
Since 1 July heating degree days 0 1  
Cooling Degree Days 6 4  
Month to date cooling degree days 6 4  
Year to date cooling degree days 99 61  
Since 1 June cooling degree days 89 57  
Growing Degree Days 20 (Base 50)    
Moisture  
Dew Point 46 °F    
Average Humidity 54    
Maximum Humidity 89    
Minimum Humidity 19    
Precipitation  
Precipitation 0.00 in 0.05 in 0.65 in (2009)
Month to date precipitation 0.00 0.05  
Year to date precipitation 6.84 6.87  
Snow  
Snow 0.00 in 0.00 in - ()
Month to date snowfall 0.0 0.0  
Since 1 June snowfall 0.0 0.1  
Since 1 July snowfall 0.0 0.0  
Snow Depth 0.00 in    
Sea Level Pressure  
Sea Level Pressure 30.08 in    
Wind  
Wind Speed 7 mph (NE)    
Max Wind Speed 21 mph    
Max Gust Speed 26 mph    
Visibility 10 miles    
Events      
T = Trace of Precipitation, MM = Missing Value Source: NWS Daily Summary

Daily Weather History Graph

Daily Weather History Graph

Search for Another Location

Airport or City:

Trip Planner

Search our weather history database for the weather conditions in past years. The results will help you decide how hot, cold, wet, or windy it might be!

Date:

Astronomy

Jul. 01, 2013 Rise Set
Actual Time 5:31 AM MDT 8:48 PM MDT
Civil Twilight 4:55 AM MDT 9:23 PM MDT
Nautical Twilight 4:10 AM MDT 10:08 PM MDT
Astronomical Twilight 3:14 AM MDT 11:04 PM MDT
Moon 1:08 AM MDT (7/1) 3:01 PM MDT (7/1)
Length of Visible Light 16h 27m
Length of Day
15h 17m
Waning Crescent, 35% of the Moon is Illuminated
Jul 1
Waning Crescent
Jul 8
New
Jul 15
First Quarter
Jul 22
Full
Jul 29
Last Quarter

Hourly Weather History & Observations

Time (MDT) Temp. Dew Point Humidity Pressure Visibility Wind Dir Wind Speed Gust Speed Precip Events Conditions
12:53 AM 57.0 °F 50.0 °F 77% 30.08 in 10.0 mi West 5.8 mph - N/A   Clear
1:53 AM 57.0 °F 48.9 °F 74% 30.08 in 10.0 mi North 4.6 mph - N/A   Clear
2:53 AM 55.0 °F 48.9 °F 80% 30.08 in 10.0 mi NNE 5.8 mph - N/A   Clear
3:53 AM 54.0 °F 48.9 °F 83% 30.09 in 10.0 mi North 5.8 mph - N/A   Clear
4:53 AM 52.0 °F 48.9 °F 89% 30.11 in 10.0 mi NW 4.6 mph - N/A   Clear
5:53 AM 52.0 °F 48.0 °F 86% 30.12 in 10.0 mi WSW 3.5 mph - N/A   Partly Cloudy
6:53 AM 59.0 °F 50.0 °F 72% 30.13 in 10.0 mi Calm Calm - N/A   Clear
7:53 AM 63.0 °F 48.9 °F 60% 30.14 in 10.0 mi Calm Calm - N/A   Clear
8:53 AM 68.0 °F 48.9 °F 50% 30.14 in 10.0 mi Calm Calm - N/A   Clear
9:53 AM 72.0 °F 50.0 °F 46% 30.12 in 10.0 mi Calm Calm - N/A   Clear
10:53 AM 75.9 °F 48.9 °F 38% 30.11 in 10.0 mi Variable 3.5 mph - N/A   Clear
11:53 AM 79.0 °F 48.0 °F 34% 30.09 in 10.0 mi SE 6.9 mph - N/A   Clear
12:53 PM 82.9 °F 46.9 °F 28% 30.09 in 10.0 mi Calm Calm - N/A   Scattered Clouds
1:53 PM 82.0 °F 43.0 °F 25% 30.08 in 10.0 mi Variable 5.8 mph 16.1 mph N/A   Scattered Clouds
2:53 PM 84.0 °F 43.0 °F 24% 30.07 in 10.0 mi ENE 8.1 mph 17.3 mph N/A   Partly Cloudy
3:53 PM 87.1 °F 41.0 °F 20% 30.05 in 10.0 mi NNE 13.8 mph 20.7 mph N/A   Scattered Clouds
4:53 PM 84.0 °F 41.0 °F 22% 30.07 in 10.0 mi North 13.8 mph 21.9 mph N/A   Scattered Clouds
5:53 PM 86.0 °F 39.9 °F 20% 30.05 in 10.0 mi NNE 16.1 mph 19.6 mph N/A   Clear
6:53 PM 82.9 °F 39.9 °F 22% 30.03 in 10.0 mi NE 17.3 mph - N/A   Clear
7:53 PM 80.1 °F 39.9 °F 24% 30.04 in 10.0 mi ENE 15.0 mph 20.7 mph N/A   Clear
8:53 PM 75.0 °F 41.0 °F 29% 30.04 in 10.0 mi ENE 9.2 mph - N/A   Clear
9:53 PM 70.0 °F 48.9 °F 47% 30.07 in 10.0 mi East 10.4 mph - N/A   Clear
10:53 PM 66.0 °F 50.0 °F 56% 30.08 in 10.0 mi East 8.1 mph - N/A   Clear
11:53 PM 64.0 °F 50.0 °F 60% 30.08 in 10.0 mi East 6.9 mph - N/A   Clear